KA6YAK Weather Reports


time (UTC)temp
C
wind
direction
speed
KPH
gust
KPH
rain 1hr
cm
rain 24hr
cm
rain mn
cm
humidity
%
barometer
mb
20260507223857 22 334 4.8 20.9 0.00 0.00 0.00 36 1012.8
20260507222857 24 280 17.7 29.0 0.00 0.00 0.00 32 1012.5
20260507221855 23 94 0.0 17.7 0.00 0.00 0.00 33 1012.8
20260507220852 23 287 6.4 20.9 0.00 0.00 0.00 33 1012.8
20260507215852 23 97 11.3 20.9 0.00 0.00 0.00 36 1012.8
20260507215803 23 271 9.7 14.5 0.00 0.00 0.00 35 1012.8
20260507213849 22 352 4.8 22.5 0.00 0.00 0.00 34 1013.3
20260507212848 21 250 4.8 22.5 0.00 0.00 0.00 37 1013.3
20260507211845 22 328 14.5 30.6 0.00 0.00 0.00 35 1013.3
20260507210844 21 325 6.4 12.9 0.00 0.00 0.00 38 1013.3
20260507205844 21 323 3.2 22.5 0.00 0.00 0.00 35 1013.6
20260507204840 23 253 9.7 17.7 0.00 0.00 0.00 35 1013.6
20260507203839 22 201 6.4 12.9 0.00 0.00 0.00 39 1013.6
20260507202839 21 6 3.2 17.7 0.00 0.00 0.00 38 1014.1
20260507201837 22 204 4.8 6.4 0.00 0.00 0.00 37 1014.1
20260507200835 22 162 0.0 17.7 0.00 0.00 0.00 37 1013.6
20260507195836 22 48 1.6 11.3 0.00 0.00 0.00 36 1014.1
20260507195750 20 306 3.2 14.5 0.00 0.00 0.00 41 1014.1
20260507193831 20 9 4.8 17.7 0.00 0.00 0.00 39 1014.1
20260507192832 23 44 6.4 12.9 0.00 0.00 0.00 37 1014.1
20260507191827 22 75 0.0 11.3 0.00 0.00 0.00 38 1014.1
20260507190825 22 334 6.4 12.9 0.00 0.00 0.00 38 1014.1
20260507185825 22 24 4.8 12.9 0.00 0.00 0.00 38 1014.1
20260507184821 21 18 8.0 11.3 0.00 0.00 0.00 38 1013.6
20260507183821 21 140 3.2 9.7 0.00 0.00 0.00 40 1014.1
20260507182821 21 183 6.4 16.1 0.00 0.00 0.00 39 1014.1
20260507181817 20 224 8.0 16.1 0.00 0.00 0.00 41 1014.1
20260507181309 20 256 6.4 17.7 0.00 0.00 0.00 42 1014.4
20260507175816 20 264 6.4 11.3 0.00 0.00 0.00 43 1014.4
20260507175254 19 308 1.6 12.9 0.00 0.00 0.00 45 1014.4
20260507173811 18 243 3.2 11.3 0.00 0.00 0.00 45 1014.7
20260507172811 18 190 4.8 22.5 0.00 0.00 0.00 44 1014.7
20260507171808 19 264 14.5 22.5 0.00 0.00 0.00 46 1014.7
20260507170807 18 289 6.4 16.1 0.00 0.00 0.00 48 1014.7
20260507170243 17 268 4.8 24.1 0.00 0.00 0.00 48 1014.7
20260507164804 18 269 11.3 17.7 0.00 0.00 0.00 45 1014.7
20260507164243 18 232 4.8 22.5 0.00 0.00 0.00 45 1014.4
20260507162803 19 253 6.4 27.4 0.00 0.00 0.00 45 1014.4
20260507161759 17 233 17.7 41.8 0.00 0.00 0.00 49 1014.7
20260507160758 18 276 17.7 33.8 0.00 0.00 0.00 47 1014.7
20260507155758 17 208 11.3 20.9 0.00 0.00 0.00 48 1014.7
20260507154755 16 261 11.3 17.7 0.00 0.00 0.00 47 1014.7
20260507154231 16 255 11.3 14.5 0.00 0.00 0.00 49 1014.7
20260507152754 16 169 6.4 9.7 0.00 0.00 0.00 50 1014.7
20260507151751 16 147 6.4 12.9 0.00 0.00 0.00 51 1014.7
20260507150750 15 229 9.7 12.9 0.00 0.00 0.00 53 1014.7
20260507145750 14 31 11.3 14.5 0.00 0.00 0.00 53 1014.7
20260507144747 13 82 6.4 16.1 0.00 0.00 0.00 56 1014.7
20260507143746 13 111 3.2 6.4 0.00 0.00 0.00 55 1014.7
20260507143219 13 117 3.2 4.8 0.00 0.00 0.00 54 1014.1
20260507141742 13 109 0.0 9.7 0.00 0.00 0.00 52 1014.4
20260507140741 15 94 3.2 6.4 0.00 0.00 0.00 52 1014.4
20260507135740 15 100 3.2 9.7 0.00 0.00 0.00 53 1014.4
20260507134738 15 71 4.8 9.7 0.00 0.00 0.00 53 1014.1
20260507134216 13 24 1.6 16.1 0.00 0.00 0.00 57 1014.1
20260507132737 11 80 12.9 24.1 0.00 0.00 0.00 59 1013.6
20260507132215 11 216 6.4 16.1 0.00 0.00 0.00 56 1013.6
20260507130732 11 227 16.1 20.9 0.00 0.00 0.00 57 1013.6
20260507125903 11 120 8.0 27.4 0.00 0.00 0.00 56 1013.3
20260507124900 11 201 8.0 16.1 0.00 0.00 0.00 56 1013.3
20260507123855 11 222 6.4 20.9 0.00 0.00 0.00 57 1013.6
20260507122854 11 196 8.0 16.1 0.00 0.00 0.00 57 1013.3
20260507121849 11 227 3.2 12.9 0.00 0.00 0.00 57 1012.8
20260507120847 11 253 6.4 14.5 0.00 0.00 0.00 58 1013.3
20260507115845 11 176 8.0 16.1 0.00 0.00 0.00 60 1012.8
20260507114841 10 199 4.8 9.7 0.00 0.00 0.00 60 1013.3
20260507113837 10 185 8.0 11.3 0.00 0.00 0.00 60 1012.8
20260507113339 10 146 3.2 9.7 0.00 0.00 0.00 59 1013.3
20260507111835 10 156 6.4 11.3 0.00 0.00 0.00 60 1012.8
20260507110827 11 72 1.6 12.9 0.00 0.00 0.00 57 1013.3
20260507105827 11 222 6.4 20.9 0.00 0.00 0.00 56 1012.8
20260507104821 11 214 9.7 14.5 0.00 0.00 0.00 56 1012.8
20260507104322 11 197 9.7 12.9 0.00 0.00 0.00 57 1012.8
20260507103316 11 163 6.4 11.3 0.00 0.00 0.00 56 1012.8
20260507101814 12 149 9.7 16.1 0.00 0.00 0.00 56 1012.8
20260507100810 11 126 3.2 9.7 0.00 0.00 0.00 57 1013.3
20260507095807 12 103 4.8 12.9 0.00 0.00 0.00 54 1012.8
20260507095306 13 163 3.2 20.9 0.00 0.00 0.00 55 1012.8
20260507093759 11 188 9.7 14.5 0.00 0.00 0.00 57 1012.8
20260507092759 11 117 6.4 16.1 0.00 0.00 0.00 57 1012.8
20260507091753 11 193 3.2 6.4 0.00 0.00 0.00 57 1012.5
20260507091250 12 146 3.2 9.7 0.00 0.00 0.00 56 1012.8
20260507085749 12 126 6.4 14.5 0.00 0.00 0.00 56 1012.8
20260507085244 12 227 3.2 14.5 0.00 0.00 0.00 58 1012.5
20260507083741 12 132 3.2 6.4 0.00 0.00 0.00 58 1012.8
20260507083242 13 176 4.8 9.7 0.00 0.00 0.00 55 1012.8
20260507081736 13 265 6.4 11.3 0.00 0.00 0.00 56 1012.8
20260507080731 13 105 3.2 11.3 0.00 0.00 0.00 54 1012.5
20260507075731 14 124 3.2 14.5 0.00 0.00 0.00 53 1012.8
20260507074726 16 131 9.7 30.6 0.00 0.00 0.00 50 1012.8
20260507073723 15 218 12.9 29.0 0.00 0.00 0.00 52 1012.8
20260507072720 14 209 6.4 14.5 0.00 0.00 0.00 54 1012.5
20260507071715 14 255 9.7 25.7 0.00 0.00 0.00 55 1012.8
20260507070713 13 235 8.0 24.1 0.00 0.00 0.00 56 1012.5
20260507065712 14 255 11.3 12.9 0.00 0.00 0.00 55 1012.8
20260507064709 13 173 6.4 6.4 0.00 0.00 0.00 55 1012.8
20260507063706 13 110 1.6 9.7 0.00 0.00 0.00 54 1012.8
20260507062705 14 74 4.8 14.5 0.00 0.00 0.00 54 1012.8
20260507062159 15 36 9.7 14.5 0.00 0.00 0.00 54 1012.8
20260507060658 15 243 12.9 16.1 0.00 0.00 0.00 51 1012.8
20260507055655 15 209 9.7 35.4 0.00 0.00 0.00 49 1012.8
20260507054649 16 256 24.1 49.9 0.00 0.00 0.00 48 1012.8
20260507053647 16 187 19.3 53.1 0.00 0.00 0.00 48 1012.8
20260507052644 16 296 27.4 66.0 0.00 0.00 0.00 47 1012.8
20260507051641 16 205 17.7 48.3 0.00 0.00 0.00 48 1012.8
20260507050650 16 223 12.9 53.1 0.00 0.00 0.00 48 1012.5
20260507045637 16 261 32.2 49.9 0.00 0.00 0.00 52 1012.5
20260507044632 15 236 14.5 33.8 0.00 0.00 0.00 55 1012.5
20260507043629 14 260 20.9 24.1 0.00 0.00 0.00 57 1012.8
20260507043124 14 248 12.9 22.5 0.00 0.00 0.00 55 1012.8
20260507041623 15 236 12.9 24.1 0.00 0.00 0.00 54 1012.5
20260507041118 15 277 8.0 16.1 0.00 0.00 0.00 54 1012.5
20260507035618 15 268 12.9 17.7 0.00 0.00 0.00 52 1012.5
20260507035112 15 226 12.9 22.5 0.00 0.00 0.00 52 1012.2
20260507033611 16 239 14.5 24.1 0.00 0.00 0.00 51 1012.2
20260507032611 16 223 16.1 30.6 0.00 0.00 0.00 49 1012.2
20260507031608 16 179 14.5 27.4 0.00 0.00 0.00 48 1011.7
20260507030606 16 230 14.5 27.4 0.00 0.00 0.00 47 1011.7
20260507025607 17 263 25.7 30.6 0.00 0.00 0.00 46 1011.7
20260507024603 17 244 19.3 35.4 0.00 0.00 0.00 45 1011.7
20260507023602 17 190 14.5 29.0 0.00 0.00 0.00 44 1011.7
20260507022601 17 241 12.9 17.7 0.00 0.00 0.00 43 1011.7
20260507021558 17 242 16.1 33.8 0.00 0.00 0.00 42 1011.7
20260507020557 17 256 9.7 14.5 0.00 0.00 0.00 42 1011.7
20260507015557 18 239 4.8 17.7 0.00 0.00 0.00 41 1011.7
20260507014554 18 149 6.4 33.8 0.00 0.00 0.00 40 1012.2
20260507013553 18 244 17.7 33.8 0.00 0.00 0.00 40 1011.7
20260507012552 20 276 11.3 27.4 0.00 0.00 0.00 41 1011.7
20260507011550 21 283 12.9 25.7 0.00 0.00 0.00 39 1012.2
20260507011528 22 268 16.1 37.0 0.00 0.00 0.00 37 1011.7
20260507005548 22 265 12.9 30.6 0.00 0.00 0.00 36 1012.2
20260507004545 23 267 22.5 40.2 0.00 0.00 0.00 36 1011.7
20260507004020 22 195 24.1 33.8 0.00 0.00 0.00 36 1011.7
20260507003040 22 245 27.4 46.7 0.00 0.00 0.00 35 1011.7
20260507001540 24 267 33.8 38.6 0.00 0.00 0.00 34 1011.7
20260507000541 24 265 33.8 43.5 0.00 0.00 0.00 33 1011.7
20260506235539 24 134 25.7 49.9 0.00 0.00 0.00 33 1011.7
20260506234536 24 242 33.8 49.9 0.00 0.00 0.00 34 1011.7
20260506233534 25 264 33.8 40.2 0.00 0.00 0.00 34 1012.2
20260506233014 23 285 27.4 53.1 0.00 0.00 0.00 37 1011.4
20260506231532 24 249 25.7 40.2 0.00 0.00 0.00 36 1012.2
20260506230531 23 267 19.3 33.8 0.00 0.00 0.00 39 1012.2
20260506225530 22 314 4.8 16.1 0.00 0.00 0.00 38 1011.7
20260506224528 23 106 3.2 17.7 0.00 0.00 0.00 35 1012.2